{"data":{"norad_id":57400,"intl_designator":"2023-101B","name":"TIANMU-1 08","alt_names":[],"object_type":"PAYLOAD","status":"ACTIVE","operator":null,"country":"PRC","launch_date":"2023-07-20","launch_site_code":"JSC","launch_vehicle":null,"mission":null,"orbit_class":"UNKNOWN","rcs_meters":null,"size_class":null,"mass_kg":null,"dimensions":null,"purposes":["earth_obs"],"wikipedia_slug":null,"has_3d_model":false,"image_url":null,"decayed_at":null,"tle_current":{"epoch":"2026-09-19T22:42:36.965952Z","epoch_age_seconds":62356,"freshness":"FRESH","line1":"1 57400U 23101B   26262.94626118  .00003878  00000+0  13303-3 0  9996","line2":"2 57400  97.2494 311.2088 0005131 129.3988 230.7708 15.30740499176133","mean_motion":15.30740499,"eccentricity":0.0005131,"inclination_deg":97.2494,"raan_deg":311.2088,"arg_perigee_deg":129.3988,"mean_anomaly_deg":230.7708,"bstar":0.00013303,"rev_number":17613,"period_min":94.072117445166,"perigee_km":470.086084582,"apogee_km":477.11733884796,"semimajor_km":6851.738711715,"source":"CELESTRAK","updated_at":"2026-09-20T09:00:33.253219Z"}}}